[[{"header":{"parameterUnit":"m.s-1","parameterCategory":1,"la1":30.2991,"la2":30.254,"lo1":-89.0895,"lo2":-89.0444,"dy":0.0017,"dx":0.0017,"nx":28,"ny":28,"refTime":"2025-05-30T09:00:00:Z","depth":0,"parameterNumber":2,"parameterNumberName":"U-component_of_WINDS"},"data":[0,0,0,0,0,0,0,0,0,0,0,0,0,0,0,0,0,0,0,0,0,0,0,0,0,0,0,0,0,0,0,0,0,0,0,0,0,0,0,0,0,0,0,0,0,0,0,0,0,0,0,0,0,0,0,0,0,0,-0.2701,-0.27,0,-0.2674,-0.2673,-0.2673,-0.2637,-0.2637,-0.2636,-0.2636,-0.2609,-0.2609,-0.2609,0,0,0,0,0,0,0,0,0,0,0,0,0,-0.272,-0.272,-0.2701,-0.27,-0.27,-0.2674,-0.2673,-0.2673,-0.2637,-0.2637,-0.2636,-0.2635,-0.2609,-0.2609,-0.2609,0,0,0,0,0,0,0,0,0,0,0,0,0,-0.2704,-0.272,-0.2701,-0.2679,-0.2677,-0.2674,-0.2673,-0.2673,-0.2638,-0.2637,-0.2636,-0.2635,-0.2609,-0.2609,-0.2609,-0.2625,0,0,-0.2608,-0.2608,0,0,0,0,0,0,0,0,-0.2705,-0.2704,-0.2683,-0.2681,-0.2678,-0.2658,-0.267,-0.2657,-0.2638,-0.2653,-0.2636,-0.2635,-0.2626,-0.2625,-0.2621,-0.2624,-0.2623,-0.2608,-0.2608,-0.2608,-0.2608,0,0,0,0,0,0,0,-0.2707,-0.2705,-0.269,-0.2682,-0.268,-0.267,-0.2667,-0.2668,-0.2645,-0.2651,-0.2649,-0.2646,-0.2625,-0.2622,-0.2621,-0.2622,-0.2608,-0.2608,-0.2608,-0.2608,-0.2632,-0.2633,0,0,0,0,0,0,-0.2711,-0.2706,-0.2691,-0.2689,-0.269,-0.2671,-0.2667,-0.2665,-0.2645,-0.2641,-0.2647,-0.2644,-0.2623,-0.2621,-0.2619,-0.2634,-0.2608,-0.2608,-0.2608,-0.2631,-0.2632,-0.2633,0,0,0,0,0,0,-0.2711,-0.271,-0.2692,-0.2697,-0.2694,-0.2671,-0.267,-0.2665,-0.2662,-0.2641,-0.2637,-0.2648,-0.2622,-0.262,-0.2623,-0.2633,-0.2608,-0.2607,-0.263,-0.2632,-0.2633,-0.2666,0,0,0,0,0,0,-0.2712,-0.271,-0.2717,-0.2697,-0.2694,-0.2696,-0.267,-0.2665,-0.2662,-0.2658,-0.2641,-0.2637,-0.2621,-0.2623,-0.2623,-0.2632,-0.2607,-0.2629,-0.2631,-0.2632,-0.2664,-0.2668,-0.2672,0,0,0,0,0,-0.2713,-0.2729,-0.2717,-0.2716,-0.2701,-0.2697,-0.2695,-0.2676,-0.2663,-0.2668,-0.2654,-0.2638,-0.2632,-0.2624,-0.2623,-0.2633,-0.2629,-0.2631,-0.2632,-0.2662,-0.2667,-0.2672,0,0,0,0,0,0,-0.2752,-0.2726,-0.2713,-0.2723,-0.2712,-0.2691,-0.2698,-0.2682,-0.2676,-0.2673,-0.2649,-0.2646,-0.2651,-0.2642,-0.2634,-0.2645,-0.2628,-0.2629,-0.2651,-0.2656,-0.2659,-0.2661,-0.2607,0,0,0,0,0,-0.2761,-0.276,-0.2737,-0.2748,-0.2743,-0.2721,-0.2719,-0.2704,-0.2693,-0.2688,-0.2675,-0.2664,-0.2659,-0.2657,-0.2652,-0.2662,-0.2657,-0.2668,-0.2672,-0.2675,-0.2677,-0.2678,-0.2683,-0.2639,-0.2639,-0.2639,0,0,-0.2781,-0.2767,-0.2768,-0.2755,-0.2745,-0.2744,-0.2718,-0.2719,-0.2717,-0.2689,-0.269,-0.2679,-0.2665,-0.2671,-0.2673,-0.2664,-0.2687,-0.2678,-0.268,-0.268,-0.2681,-0.2685,-0.2689,-0.264,-0.264,-0.264,0,0,-0.2816,-0.2806,-0.2812,-0.2802,-0.2786,-0.2771,-0.2773,-0.2753,-0.2744,-0.2745,-0.2723,-0.272,-0.2714,-0.2704,-0.2698,-0.2725,-0.2708,-0.2724,-0.2745,-0.2746,-0.275,-0.2753,-0.276,-0.2763,-0.2725,-0.2725,-0.2726,0,-0.2843,-0.284,-0.2817,-0.2818,-0.2812,-0.2785,-0.2789,-0.2781,-0.2765,-0.2761,-0.2751,-0.2739,-0.2729,-0.273,-0.2736,-0.2733,-0.2732,-0.2726,-0.2751,-0.2754,-0.2756,-0.2763,-0.2766,-0.2727,-0.2727,-0.2727,-0.2727,0,-0.2872,-0.287,-0.2877,-0.286,-0.2855,-0.2858,-0.2835,-0.2832,-0.2817,-0.2803,-0.2802,-0.2787,-0.2777,-0.2776,-0.2763,-0.2775,-0.2769,-0.2755,-0.2737,-0.2762,-0.2768,-0.2771,-0.273,-0.2729,-0.2729,-0.2728,0,0,-0.2933,-0.2901,-0.2904,-0.2894,-0.2874,-0.2871,-0.2872,-0.2861,-0.2858,-0.2847,-0.2845,-0.2838,-0.2824,-0.2817,-0.2802,-0.2804,-0.2822,-0.2789,-0.2788,-0.2794,-0.2832,-0.2842,-0.2845,-0.2811,-0.2812,-0.2812,-0.2832,0,-0.2963,-0.2962,-0.294,-0.2945,-0.2941,-0.2913,-0.2913,-0.29,-0.2885,-0.288,-0.2864,-0.2858,-0.2841,-0.2836,-0.2837,-0.282,-0.283,-0.2819,-0.2809,-0.2809,-0.2812,-0.2849,-0.286,-0.288,-0.2835,-0.2835,-0.2836,0,-0.2999,-0.2988,-0.2992,-0.2967,-0.2965,-0.2965,-0.2951,-0.2947,-0.293,-0.2919,-0.291,-0.2891,-0.2888,-0.2871,-0.2866,-0.2858,-0.2853,-0.2844,-0.2844,-0.2842,-0.2823,-0.2847,-0.2887,-0.2889,-0.2839,-0.2839,-0.2839,0,-0.304,-0.3027,-0.3026,-0.3019,-0.2992,-0.2992,-0.298,-0.2963,-0.2956,-0.2944,-0.2939,-0.2927,-0.292,-0.2911,-0.2889,-0.2879,-0.2885,-0.2867,-0.2875,-0.2875,-0.2877,-0.2877,-0.2916,-0.2875,-0.2875,-0.2875,-0.2875,0,-0.3076,-0.3079,-0.3044,-0.3044,-0.3045,-0.3019,-0.3021,-0.3007,-0.2991,-0.2986,-0.2962,-0.2958,-0.2929,-0.2922,-0.2905,-0.2901,-0.2899,-0.2889,-0.2884,-0.2891,-0.2892,-0.2887,-0.2884,-0.2876,-0.2876,-0.2876,-0.2876,0,-0.3123,-0.31,-0.3097,-0.307,-0.3063,-0.3065,-0.3041,-0.3039,-0.3022,-0.3016,-0.3013,-0.2987,-0.2976,-0.2953,-0.2937,-0.2925,-0.2925,-0.2918,-0.2931,-0.2928,-0.2936,-0.2935,-0.2972,-0.2975,-0.2934,-0.2935,-0.2935,0,-0.3147,-0.3148,-0.312,-0.3114,-0.3103,-0.3096,-0.3088,-0.3061,-0.3054,-0.3033,-0.3033,-0.302,-0.3009,-0.2993,-0.2972,-0.2958,-0.2949,-0.2963,-0.2947,-0.2952,-0.2947,-0.2947,-0.2946,-0.2966,-0.2967,-0.2967,-0.2968,0,-0.3191,-0.3178,-0.3168,-0.3153,-0.3144,-0.3131,-0.3117,-0.3114,-0.3083,-0.3076,-0.3064,-0.3055,-0.3037,-0.3024,-0.3007,-0.2994,-0.2975,-0.2972,-0.2973,-0.298,-0.2986,-0.2981,-0.2939,-0.2972,-0.2972,-0.2971,-0.2971,-0.2971,-0.3226,-0.3224,-0.3203,-0.3192,-0.3177,-0.3164,-0.3159,-0.314,-0.313,-0.3112,-0.3097,-0.3086,-0.3066,-0.304,-0.3028,-0.3019,-0.301,-0.3012,-0.3012,-0.3012,-0.3014,-0.2988,-0.3016,-0.3015,-0.3015,-0.3015,-0.3015,0,-0.3267,-0.3251,-0.3241,-0.322,-0.321,-0.3192,-0.3175,-0.3168,-0.3158,-0.314,-0.3128,-0.3113,-0.3099,-0.3076,-0.306,-0.3056,-0.3047,-0.3053,-0.3052,-0.3049,-0.3024,-0.3024,-0.306,-0.306,-0.306,-0.306,-0.306,-0.306,-0.3287,-0.3283,-0.3267,-0.3254,-0.3238,-0.3227,-0.3218,-0.3204,-0.3189,-0.3173,-0.3161,-0.3145,-0.3125,-0.3106,-0.3092,-0.3085,-0.308,-0.3088,-0.3078,-0.3056,-0.3051,-0.3047,-0.3047,-0.3087,-0.3087,-0.3104,-0.3104,-0.3104]},{"header":{"parameterUnit":"m.s-1","parameterCategory":1,"la1":30.2991,"la2":30.254,"lo1":-89.0895,"lo2":-89.0444,"dy":0.0017,"dx":0.0017,"nx":28,"ny":28,"refTime":"2025-05-30T09:00:00:Z","depth":0,"parameterNumber":3,"parameterNumberName":"V-component_of_WINDS"},"data":[0,0,0,0,0,0,0,0,0,0,0,0,0,0,0,0,0,0,0,0,0,0,0,0,0,0,0,0,0,0,0,0,0,0,0,0,0,0,0,0,0,0,0,0,0,0,0,0,0,0,0,0,0,0,0,0,0,0,-3.3198,-3.3199,0,-3.3271,-3.3272,-3.3273,-3.3221,-3.3219,-3.3216,-3.3214,-3.3288,-3.3292,-3.3296,0,0,0,0,0,0,0,0,0,0,0,0,0,-3.3011,-3.3015,-3.3198,-3.3199,-3.32,-3.3271,-3.3272,-3.3273,-3.3221,-3.3218,-3.3216,-3.3213,-3.3286,-3.3291,-3.3296,0,0,0,0,0,0,0,0,0,0,0,0,0,-3.3089,-3.3016,-3.3198,-3.3183,-3.3182,-3.3271,-3.3272,-3.3273,-3.3222,-3.3218,-3.3215,-3.3212,-3.3285,-3.3291,-3.3297,-3.3404,0,0,-3.3315,-3.3318,0,0,0,0,0,0,0,0,-3.3085,-3.3096,-3.3184,-3.3184,-3.3183,-3.3233,-3.3233,-3.3317,-3.3223,-3.3207,-3.3214,-3.321,-3.3272,-3.3279,-3.33,-3.3407,-3.341,-3.3316,-3.332,-3.3322,-3.3324,0,0,0,0,0,0,0,-3.3079,-3.3093,-3.3227,-3.3185,-3.3185,-3.3171,-3.3179,-3.3249,-3.3258,-3.3208,-3.3204,-3.3214,-3.3271,-3.3295,-3.3302,-3.3411,-3.3316,-3.3321,-3.3325,-3.3328,-3.3607,-3.361,0,0,0,0,0,0,-3.3076,-3.3088,-3.3224,-3.3229,-3.3125,-3.3177,-3.3186,-3.3221,-3.3257,-3.3259,-3.3217,-3.3211,-3.3286,-3.3295,-3.3304,-3.343,-3.3322,-3.3328,-3.3332,-3.3603,-3.3608,-3.3612,0,0,0,0,0,0,-3.3072,-3.3088,-3.3221,-3.3158,-3.3174,-3.3184,-3.3224,-3.3224,-3.3247,-3.3264,-3.3265,-3.3239,-3.3283,-3.3295,-3.3379,-3.3432,-3.3331,-3.3336,-3.3599,-3.3604,-3.361,-3.3683,0,0,0,0,0,0,-3.3067,-3.3087,-3.3129,-3.3159,-3.3177,-3.3296,-3.3228,-3.3228,-3.3258,-3.3251,-3.3285,-3.3287,-3.3282,-3.337,-3.3385,-3.3438,-3.3341,-3.3594,-3.3601,-3.3608,-3.3676,-3.3691,-3.3703,0,0,0,0,0,-3.306,-3.3147,-3.3131,-3.3148,-3.323,-3.3299,-3.331,-3.3302,-3.3263,-3.3304,-3.3314,-3.3286,-3.3424,-3.3379,-3.3395,-3.3451,-3.3591,-3.3599,-3.3607,-3.367,-3.3688,-3.3703,0,0,0,0,0,0,-3.3123,-3.3151,-3.3134,-3.3233,-3.3264,-3.329,-3.3342,-3.3322,-3.3364,-3.3356,-3.3345,-3.3353,-3.344,-3.3454,-3.3403,-3.3556,-3.3501,-3.3513,-3.3543,-3.356,-3.3573,-3.3567,-3.3346,0,0,0,0,0,-3.3148,-3.3203,-3.3224,-3.331,-3.3326,-3.3332,-3.3362,-3.3353,-3.3385,-3.3398,-3.3414,-3.3445,-3.3495,-3.3529,-3.3576,-3.3678,-3.3684,-3.3725,-3.3738,-3.3749,-3.376,-3.3812,-3.383,-3.3639,-3.3639,-3.3639,0,0,-3.3201,-3.3223,-3.3259,-3.3323,-3.3346,-3.3402,-3.3343,-3.3406,-3.3446,-3.3407,-3.3486,-3.3499,-3.3533,-3.3626,-3.3668,-3.3641,-3.3814,-3.376,-3.3769,-3.3773,-3.3823,-3.3841,-3.3857,-3.3645,-3.3644,-3.3643,0,0,-3.3326,-3.3349,-3.3422,-3.3446,-3.3481,-3.3484,-3.3502,-3.3531,-3.3538,-3.3617,-3.3588,-3.3636,-3.3724,-3.3748,-3.3772,-3.3904,-3.3879,-3.392,-3.399,-3.4042,-3.4057,-3.407,-3.4115,-3.4132,-3.393,-3.3931,-3.3931,0,-3.3387,-3.3471,-3.3462,-3.3526,-3.3554,-3.3521,-3.3593,-3.3617,-3.3666,-3.3686,-3.3655,-3.3762,-3.3783,-3.3879,-3.3911,-3.3933,-3.3951,-3.3916,-3.4056,-3.4069,-3.4081,-3.4124,-3.4141,-3.3935,-3.3935,-3.3934,-3.3934,0,-3.3543,-3.3602,-3.3656,-3.3704,-3.3738,-3.3806,-3.3806,-3.3842,-3.383,-3.3835,-3.3915,-3.3939,-3.3989,-3.4012,-3.4001,-3.4107,-3.4088,-3.4057,-3.4001,-3.4104,-3.4144,-3.416,-3.3942,-3.394,-3.3939,-3.3938,0,0,-3.371,-3.3751,-3.3771,-3.3791,-3.3827,-3.3871,-3.3937,-3.3986,-3.4016,-3.4051,-3.4104,-3.4178,-3.4148,-3.4175,-3.4167,-3.4213,-3.4313,-3.4175,-3.4176,-3.4198,-3.4428,-3.445,-3.447,-3.4297,-3.43,-3.4303,-3.4424,0,-3.3835,-3.395,-3.3942,-3.405,-3.4102,-3.4071,-3.4127,-3.4155,-3.4161,-3.4206,-3.4213,-3.4265,-3.4223,-3.4239,-3.4283,-3.4292,-3.4359,-3.4283,-3.4345,-3.4347,-3.4336,-3.4491,-3.4515,-3.4629,-3.444,-3.4443,-3.4445,0,-3.3997,-3.4036,-3.4148,-3.4174,-3.4196,-3.4248,-3.429,-3.4334,-3.4364,-3.4365,-3.4395,-3.4379,-3.4443,-3.4387,-3.4475,-3.4423,-3.4448,-3.4456,-3.446,-3.4465,-3.4401,-3.4498,-3.4666,-3.4682,-3.447,-3.4468,-3.4466,0,-3.4104,-3.4186,-3.4263,-3.4281,-3.4314,-3.4351,-3.4366,-3.4392,-3.4422,-3.4459,-3.4478,-3.4523,-3.4547,-3.4581,-3.4577,-3.4536,-3.4665,-3.4609,-3.4667,-3.4667,-3.4694,-3.4692,-3.4867,-3.4713,-3.4713,-3.4713,-3.4713,0,-3.4244,-3.4313,-3.4311,-3.4359,-3.4435,-3.4425,-3.4501,-3.4512,-3.4535,-3.4583,-3.4559,-3.4604,-3.4596,-3.4641,-3.4638,-3.471,-3.4721,-3.4723,-3.4721,-3.4724,-3.4724,-3.474,-3.4731,-3.4717,-3.4716,-3.4716,-3.4715,0,-3.4377,-3.4378,-3.446,-3.4484,-3.4491,-3.4546,-3.4566,-3.461,-3.4614,-3.4675,-3.4689,-3.4695,-3.4747,-3.4746,-3.4805,-3.4802,-3.489,-3.488,-3.488,-3.4877,-3.4934,-3.4928,-3.5123,-3.5147,-3.498,-3.4981,-3.4983,0,-3.4465,-3.4517,-3.4547,-3.4577,-3.4594,-3.4644,-3.4673,-3.4665,-3.4697,-3.4733,-3.4772,-3.4822,-3.486,-3.4944,-3.4953,-3.4997,-3.4987,-3.5052,-3.4993,-3.4994,-3.4985,-3.4981,-3.4985,-3.5063,-3.5065,-3.5067,-3.5068,0,-3.4621,-3.4618,-3.4662,-3.4705,-3.4741,-3.4775,-3.4806,-3.4832,-3.4827,-3.4863,-3.4915,-3.4945,-3.5004,-3.5053,-3.5095,-3.5109,-3.5087,-3.5086,-3.5102,-3.5105,-3.5102,-3.5102,-3.4909,-3.5082,-3.508,-3.5079,-3.5078,-3.5078,-3.4733,-3.4777,-3.4804,-3.4852,-3.4875,-3.4904,-3.4945,-3.4954,-3.4998,-3.5045,-3.5038,-3.5095,-3.5122,-3.5176,-3.5194,-3.5238,-3.5215,-3.5238,-3.5243,-3.5249,-3.5254,-3.5096,-3.5246,-3.5246,-3.5246,-3.5245,-3.5245,0,-3.4885,-3.49,-3.4945,-3.4989,-3.5027,-3.5003,-3.5036,-3.5068,-3.5119,-3.5146,-3.5184,-3.5243,-3.5289,-3.5302,-3.5346,-3.5379,-3.537,-3.5391,-3.5387,-3.539,-3.5273,-3.5255,-3.5397,-3.5397,-3.5397,-3.5397,-3.5397,-3.5397,-3.4969,-3.5042,-3.5042,-3.5125,-3.514,-3.5196,-3.5216,-3.5242,-3.5263,-3.533,-3.5368,-3.5376,-3.5397,-3.5442,-3.5483,-3.5485,-3.5501,-3.5526,-3.5524,-3.5414,-3.5399,-3.5384,-3.5367,-3.553,-3.553,-3.5637,-3.5638,-3.5639]}]]